XE2WR-3 Weather Reports


time (UTC)temp
C
wind
direction
speed
KPH
gust
KPH
rain 1hr
cm
rain 24hr
cm
rain mn
cm
humidity
%
barometer
mb
20260503021516 18 72 4.8 9.7 0.00 0.20 0.10 67 1019.8
20260503020015 18 54 1.6 8.0 0.00 0.20 0.10 67 1019.5
20260503014514 18 70 3.2 8.0 0.00 0.20 0.10 67 1019.2
20260503013014 18 63 6.4 11.3 0.00 0.20 0.10 67 1019.1
20260503011513 18 74 6.4 12.9 0.00 0.20 0.10 66 1019.0
20260503010012 18 75 3.2 11.3 0.00 0.20 0.10 66 1019.0
20260503004511 19 74 6.4 9.7 0.00 0.20 0.10 66 1018.7
20260503003033 19 37 6.4 12.9 0.00 0.20 0.10 66 1018.7
20260503001510 19 47 6.4 14.5 0.00 0.20 0.10 66 1018.6
20260503000010 19 45 4.8 11.3 0.00 0.20 0.10 66 1018.7
20260502234508 19 63 8.0 12.9 0.00 0.20 0.10 66 1018.7
20260502233007 19 76 9.7 17.7 0.00 0.20 0.10 66 1018.6
20260502231507 19 52 8.0 14.5 0.00 0.20 0.10 66 1018.6
20260502230007 19 45 8.0 12.9 0.00 0.20 0.10 66 1018.5
20260502224505 19 41 3.2 14.5 0.00 0.20 0.10 67 1018.4
20260502223013 19 39 4.8 12.9 0.00 0.20 0.10 66 1018.3
20260502221505 19 41 3.2 12.9 0.00 0.20 0.10 65 1018.3
20260502220006 20 32 3.2 14.5 0.00 0.20 0.10 66 1018.4
20260502214504 20 74 6.4 11.3 0.00 0.20 0.10 65 1018.3
20260502213003 20 73 4.8 12.9 0.00 0.20 0.10 66 1018.4
20260502211509 20 63 4.8 11.3 0.00 0.20 0.10 66 1018.4
20260502210003 20 61 6.4 11.3 0.00 0.20 0.10 65 1018.6
20260502204501 20 46 0.0 9.7 0.00 0.20 0.10 67 1018.6
20260502203101 20 76 4.8 11.3 0.00 0.20 0.10 66 1018.7
20260502201611 20 47 1.6 12.9 0.00 0.20 0.10 68 1018.9
20260502200059 19 70 4.8 12.9 0.00 0.20 0.10 68 1019.0
20260502194558 19 75 3.2 12.9 0.00 0.20 0.10 68 1019.1
20260502193059 20 94 4.8 11.3 0.00 0.20 0.10 68 1019.3
20260502191556 19 99 1.6 8.0 0.00 0.20 0.10 71 1019.4
20260502190057 19 60 6.4 11.3 0.00 0.20 0.10 72 1019.6
20260502184603 18 80 6.4 9.7 0.00 0.20 0.10 73 1019.8
20260502183101 18 76 4.8 8.0 0.00 0.20 0.10 75 1020.0
20260502181558 17 93 1.6 8.0 0.00 0.20 0.10 79 1020.3
20260502163049 16 88 1.6 6.4 0.00 0.20 0.10 82 1020.3
20260502161539 16 63 3.2 6.4 0.00 0.20 0.10 82 1020.3
20260502151532 15 72 3.2 8.0 0.00 0.20 0.10 82 1019.7
20260502123012 15 61 3.2 6.4 0.00 0.30 0.10 74 1017.9
20260502121512 15 56 3.2 9.7 0.00 0.30 0.10 75 1017.7
20260502114511 15 53 0.0 3.2 0.00 0.36 0.10 70 1017.1
20260502113003 15 53 0.0 1.6 0.00 0.36 0.10 69 1016.8
20260502111501 15 54 0.0 3.2 0.00 0.36 0.10 72 1016.7
20260502110103 15 53 0.0 6.4 0.00 0.36 0.10 75 1016.6
20260502104557 15 37 4.8 9.7 0.00 0.36 0.10 76 1016.3
20260502103101 16 65 3.2 6.4 0.00 0.36 0.10 65 1016.2
20260502101624 16 72 1.6 4.8 0.00 0.36 0.10 65 1016.0
20260502100117 16 72 3.2 6.4 0.00 0.36 0.10 62 1016.0
20260502090150 16 81 1.6 4.8 0.00 0.36 0.10 65 1015.7
20260502070047 16 81 0.0 4.8 0.05 0.30 0.05 74 1016.4
20260502064530 17 101 3.2 11.3 0.03 0.28 0.03 81 1016.1
20260502063031 17 103 4.8 8.0 0.00 0.25 0.00 82 1016.0
20260502061526 17 153 3.2 9.7 0.00 0.25 0.00 82 1015.8
20260502060024 18 82 8.0 12.9 0.00 0.25 0.00 82 1015.7
20260502054523 17 207 3.2 8.0 0.00 0.25 0.25 82 1015.6
20260502053022 17 231 4.8 9.7 0.03 0.25 0.25 81 1015.5
20260502051525 17 221 3.2 12.9 0.05 0.25 0.25 82 1015.3
20260502050018 17 82 1.6 14.5 0.05 0.25 0.25 82 1015.3
20260502044518 17 151 8.0 16.1 0.05 0.23 0.23 81 1015.1
20260502043015 17 77 8.0 14.5 0.05 0.23 0.23 82 1014.9
20260502041511 17 102 6.4 12.9 0.05 0.23 0.23 80 1014.5
20260502040009 17 197 8.0 16.1 0.05 0.23 0.23 78 1014.3
20260502034505 17 98 1.6 11.3 0.03 0.18 0.18 79 1014.1
20260502033002 18 98 4.8 11.3 0.00 0.15 0.15 81 1013.8
20260502031602 18 75 1.6 11.3 0.00 0.15 0.15 81 1013.3
20260502030100 18 77 0.0 9.7 0.00 0.15 0.15 82 1012.9
20260502024552 18 169 0.0 14.5 0.00 0.15 0.15 82 1012.7
20260502023107 18 145 3.2 8.0 0.00 0.15 0.15 82 1012.4